Regional Weather Roundup
Issued by NWS

Home | Current Version | Previous Version | Graphics & Text | Print | Product List | Glossary On
Versions: 1 2 3 4 5 6 7 8 9 10 11 12 13 14 15 16 17 18 19 20 21 22 23 24 25 26 27 28 29 30 31 32 33 34 35 36 37 38 39 40 41 42 43 44 45 46 47 48 49 50
446
ASUS44 KJAN 030603
RWRMS

MISSISSIPPI HOURLY WEATHER ROUNDUP
NATIONAL WEATHER SERVICE JACKSON MS
1200 AM CST TUE MAR 03 2015

NOTE: "FAIR: INDICATES FEW OR NO CLOUDS BELOW 12,000 FEET WITH NO
SIGNIFICANT WEATHER AND/OR OBSTRUCTIONS TO VISIBILITY.

MSZ001>002-007>008-010>013-018>021-025>028-034>036-030700-
NORTHWEST MISSISSIPPI

CITY           SKY/WX    TMP DP  RH WIND       PRES   REMARKS
CLARKSDALE     CLOUDY    39  39 100 CALM      30.21F VSB 1/4
CLEVELAND      FOG       40  40 100 N3        30.20F VSB 1/2
GREENWOOD      CLOUDY    45  44  97 CALM      30.19F FOG
6HR MIN TEMP:  44; 6HR MAX TEMP:  45;

GREENVILLE     FOG       40  39  97 N5        30.20F VSB 1/2
6HR MIN TEMP:  40; 6HR MAX TEMP:  41; 6HR PCP: TRACE;

OLIVE BRANCH   CLOUDY    39  39 100 CALM      30.20F
OXFORD         FOG       41  39  93 CALM      30.21F VSB 3/4
TUNICA         FOG       37  37 100 N3        30.22F VSB 1
$$

MSZ003>006-009-014>017-022>024-029>033-037>039-030700-
NORTHEAST MISSISSIPPI

CITY           SKY/WX    TMP DP  RH WIND       PRES   REMARKS
COLUMBUS AFB   CLOUDY    47  47 100 CALM      30.20F
6HR MIN TEMP:  46; 6HR MAX TEMP:  47; 6HR PCP: TRACE;

CORINTH        CLOUDY    45  43  93 SE5       30.19F FOG
GOLDN TRIANGLE CLOUDY    46  45  93 E3        30.19F
STARKVILLE     FOG       45  45 100 CALM      30.20F VSB 1
TUPELO         CLOUDY    44  43  96 CALM      30.20F FOG
6HR MIN TEMP:  43; 6HR MAX TEMP:  44;

$$

MSZ040-058-030700-
CENTRAL MISSISSIPPI

CITY           SKY/WX    TMP DP  RH WIND       PRES   REMARKS
JACKSON INTL   FOG       53  52  96 CALM      30.19F VSB 1
6HR MIN TEMP:  52; 6HR MAX TEMP:  53;

JACKSON HAWKNS FOG       52  51  97 CALM      30.19F VSB 1/2
6HR MIN TEMP:  51; 6HR MAX TEMP:  52;

MERIDIAN KEY   CLOUDY    52  51  97 CALM      30.21F FOG
6HR MIN TEMP:  52; 6HR MAX TEMP:  55; 6HR PCP:  0.04;

MERIDIAN NAS   CLOUDY    51  50  96 CALM      30.21F
6HR MIN TEMP:  50; 6HR MAX TEMP:  52; 6HR PCP:  0.21;

VICKSBURG      CLOUDY    44  43  96 CALM      30.20F FOG
6HR MIN TEMP:  44; 6HR MAX TEMP:  45;

$$

MSZ059>079-030700-
SOUTH MISSISSIPPI

CITY           SKY/WX    TMP DP  RH WIND       PRES   REMARKS
BROOKHAVEN     CLOUDY    54  54 100 CALM      30.20F
HATTIESBURG    FOG       61  60  97 CALM      30.20F VSB 1/2
6HR MIN TEMP:  61; 6HR MAX TEMP:  63; 6HR PCP:  0.01;

MCCOMB         FOG       61  61 100 CALM      30.18F VSB 1
6HR MIN TEMP:  61; 6HR MAX TEMP:  63;

NATCHEZ        CLOUDY    46  45  93 CALM      30.20F
6HR MIN TEMP:  45; 6HR MAX TEMP:  46;

PINE BELT      CLOUDY    59  57  94 CALM      30.21F VSB 1/2
6HR MIN TEMP:  59; 6HR MAX TEMP:  61;

$$

MSZ080>082-030700-
COASTAL MISSISSIPPI

CITY           SKY/WX    TMP DP  RH WIND       PRES   REMARKS
BILOXI         FOG       65  65 100 SE5       30.18F VSB 1/2
6HR MIN TEMP:  63; 6HR MAX TEMP:  65; 6HR PCP: TRACE;

PASCAGOULA     FOG       64  64 100 CALM      30.19F VSB 1/2
6HR MIN TEMP:  63; 6HR MAX TEMP:  64;

GULFPORT       FOG       63  63 100 SE5       30.18F VSB 1/4
6HR MIN TEMP:  63; 6HR MAX TEMP:  64;

$$



USA.gov is the U.S. government's official web portal to all federal, state and local government web resources and services.